Location: Guadanolo
(41.9167°N, 12.9333°E)
Time: 20:56:19
(UTC+00:00)

Cosmos 2297 Rocket - Pass Details

Date: 16 September 2019
Orbit: 841 x 842 km, 71.0° (Epoch: 14 October)

Event Time Altitude Azimuth Distance (km) Brightness Sun altitude
Rises 17:59:46 0° 146° (SE) 3,385 4.9 -8.8°
Enters shadow 18:00:22 - 143° (SE) 3,216 4.8 -8.9°
Exits shadow 18:07:09 11° 82° (E) 2,405 4.0 -10.1°
Drops below altitude 10° 18:07:42 10° 77° (ENE) 2,463 4.1 -10.2°
Sets 18:11:57 0° 46° (NE) 3,405 5.0 -11.0°
